Location: Oberkirch
(48.5323°N, 8.0787°E)
Time: 18:27:58
(UTC+00:00)

Cosmos 1939 Rocket - Pass Details

Date: 08 November 2025
Orbit: 491 x 528 km, 97.5° (Epoch: 10 December)

Event Time Altitude Azimuth Distance (km) Brightness Sun altitude
Rises 05:14:58 0° 360° (N) 2,688 6.2 -11.8°
Reaches altitude 10° 05:17:31 10° 343° (NNW) 1,793 5.1 -11.4°
Maximum altitude 05:20:18 19° 296° (WNW) 1,295 4.1 -11.0°
Enters shadow 05:22:59 11° 251° (WSW) 1,748 4.9 -10.5°
